Location: Unspecified
(0.0000°N, 0.0000°E)
Time: 23:25:09
(UTC+00:00)

Envisat - Pass Details

Date: 27 November 2022
Orbit: 763 x 765 km, 98.2° (Epoch: 02 December)

Event Time Altitude Azimuth Distance (km) Brightness Sun altitude
Exits shadow 05:03:18 12° 279° (W) 2,127 4.7 -10.3°
Drops below altitude 10° 05:05:06 10° 258° (WSW) 2,296 5.0 -9.9°
Sets 05:08:52 0° 229° (SW) 3,226 6.0 -9.0°
